www.pogodaiklimat.ru

Погода и климат >> Архив погоды >> Гана >> Bole


ПОГОДА в Bole

  • Прогноз погоды в Bole
  • Монитор погоды в Bole
  • Климат города

АРХИВ ПОГОДЫ в Bole

Время (UTC), дата Ветер
(напр.,м/с)
 
Видим.   Явления Облачность Т
(С)
Тd
(С)
f
(%)
Тe
(С)
Тes
(С)
Комфортность P
(гПа)
Po
(гПа)
Тmin
(С)
Tmax
(С)
R
(мм)
R24
(мм)
S
(см)
06 19.05 ЮЗ 1 15 км 9/6 360 м
[Sc Ac trans]
+25.4 +22.5 84 +33 +33 очень
душно
1013.7 1014.0 +25.4
09 19.05 ЮЗ 2 15 км 8/8 360 м
[Cu Sc]
+27.5 +23.7 80 +38 +40 очень
душно
1015.3 1015.0
12 19.05 ЮЗ 2 18 км 6/6 360 м
[Cu Sc]
+30.0 +24.1 71 +42 +50 опасность
перегрева
1013.9 1014.0
15 19.05 Ю 2 18 км 5/5 480 м
[Cu med, cong]
+33.5 +23.2 55 +44 +51 опасность
перегрева
1012.3 1012.0
21 19.05 ЮЗ 1 15 км зарница {гроза} 4/3 360 м
[Cb cap Ci fib]
+30.0 +24.1 71 +42 +42 опасность
перегрева
1013.0 1013.0
00 20.05 штиль 0 6000 м {гроза} 3/0
[As trans Ci ing]
+27.3 +24.4 84 +38 +38 очень
душно
1014.5 1015.0
03 20.05 штиль 0 15 км ясно +26.3 +23.5 85 +36 +36 очень
душно
1012.1 1012.0
06 20.05 штиль 0 15 км 6/4 360 м
[Sc Ac trans]
+26.1 +24.3 90 +36 +36 очень
душно
1014.0 1014.0 +26.1
15 20.05 СЗ 2 16 км 5/5 450 м
[Cu med, cong Ac trans]
+35.0 +24.2 54 +47 +54 опасность
перегрева
1009.8 1010.0
18 20.05 штиль 0 18 км гроза без осадков {дождь} 8/3 450 м
[Cb cap Ac trans Cs]
+29.0 +25.9 83 +43 +43 опасность
перегрева
1010.7 1011.0 +35.0 4
21 20.05 СВ 2 15 км гроза, ливневой дождь 9/5 360 м
[Cb cap Ac trans]
+22.0 +21.8 99 +29 +29 очень
душно
1017.6 1018.0
00 21.05 ЮЗ 2 15 км гроза, ливневой дождь 9/1 900 м
[Cb cap Ac trans]
+23.0 +22.6 98 +32 +32 очень
душно
1016.2 1016.0 61
06 21.05 штиль 0 15 км {гроза} 6/0
[Ac trans Ci sp]
+23.5 +22.6 95 +31 +31 очень
душно
1013.2 1013.0 +22.0 65
09 21.05 ЮЗ 1 18 км 5/1 450 м
[Cu hum Ac trans]
+26.2 +22.8 82 +35 +43 очень
душно
1014.8 1015.0
12 21.05 ЮВ 1 18 км 6/1 450 м
[Cu hum Ac trans]
+30.2 +23.2 66 +40 +55 опасность
солнечного
удара
1013.2 1013.0
15 21.05 Ю 1 12 км 8/4 450 м
[Cu med, cong Ac trans]
+31.8 +24.1 64 +44 +49 опасность
перегрева
1011.0 1011.0
18 21.05 Ю 1 18 км 5/1 450 м
[Cu med, cong Ci sp]
+31.4 +23.9 64 +43 +43 опасность
перегрева
1010.7 1011.0 +32.1
21 21.05 штиль 0 15 км 4/0
[Ci sp]
+28.8 +25.0 80 +42 +42 опасность
перегрева
1012.0 1012.0
03 22.05 штиль 0 15 км 3/0
[Ac trans]
+26.7 +24.9 90 +38 +38 очень
душно
1012.9 1013.0
09 22.05 ЮЗ 1 18 км 3/3 360 м
[Cu Sc]
+27.9 +24.2 80 +39 +47 очень
душно
1012.5 1013.0
12 22.05 ЮЗ 2 18 км 6/6 360 м
[Cu Sc]
+31.1 +25.1 70 +45 +54 опасность
перегрева
1012.0 1012.0
15 22.05 СЗ 1 18 км 5/5 480 м
[Cu med, cong]
+33.0 +26.5 69 +50 +58 опасность
перегрева
1008.7 1009.0
18 22.05 штиль 0 18 км 6/3 360 м
[Cu Sc Ac trans]
+32.0 +24.7 65 +45 +45 опасность
перегрева
1009.7 1010.0 +33.0
00 23.05 штиль 0 15 км 4/0
[Ac trans]
+28.5 +25.1 82 +41 +41 опасность
перегрева
1011.1 1011.0
03 23.05 штиль 0 15 км 5/0
[Ac trans]
+27.0 +25.2 90 +39 +39 очень
душно
1010.0 1010.0
06 23.05 штиль 0 15 км 4/0
[Ci sp]
+26.5 +24.4 88 +37 +37 очень
душно
1012.5 1013.0 +26.5
09 23.05 ЮЗ 2 18 км 8/8 360 м
[Cu Sc]
+28.0 +24.9 83 +40 +42 очень
душно
1012.2 1012.0
12 23.05 16 км н/о +32.0 +26.0 71 +48 +58 опасность
перегрева
1012.0 1012.0
15 23.05 СЗ 1 18 км 6/6 450 м
[Cu med, cong]
+33.8 +25.5 62 +48 +54 опасность
перегрева
1009.5 1010.0
18 23.05 штиль 0 18 км 3/3 450 м
[Cu hum]
+32.0 +25.5 69 +47 +47 опасность
перегрева
1009.3 1009.0 +34.2
21 23.05 штиль 0 15 км ясно +29.8 +25.4 77 +44 +44 опасность
перегрева
1010.2 1010.0
09 24.05 СЗ 2 15 км 9/5 360 м
[Sc Ac trans]
+27.8 +25.0 85 +40 +43 очень
душно
1015.0 1015.0
12 24.05 В 1 12 км гроза, ливневой дождь 9/9 360 м
[Cb cap]
+21.0 +20.8 99 +27 +30 душно 1017.2 1017.0 20
15 24.05 ЮВ 1 15 км {гроза, дождь} 8/0
[Ac trans]
+25.5 +22.6 84 +34 +41 очень
душно
1011.6 1012.0
18 24.05 ЮЗ 1 15 км {гроза, дождь} 8/0
[Ac trans Ci fib]
+25.5 +22.8 85 +34 +34 очень
душно
1011.4 1011.0 +27.8
21 24.05 С 1 15 км 6/0
[Ac trans Ci sp]
+23.6 +22.5 94 +31 +31 очень
душно
1013.9 1014.0
00 25.05 штиль 0 15 км 5/0
[Ac trans]
+23.5 +22.5 94 +31 +31 очень
душно
1010.9 1011.0
03 25.05 штиль 0 15 км 4/0
[Ci sp]
+23.1 +22.3 95 +32 +32 очень
душно
1012.9 1013.0
06 25.05 штиль 0 15 км 6/0
[Ac trans Ci fib]
+23.0 +22.0 94 +31 +31 очень
душно
1013.7 1014.0 +23.0
12 25.05 ЮЗ 2 18 км 4/4 480 м
[Cu med, cong]
+30.5 +25.3 74 +44 +57 опасность
перегрева
1013.4 1013.0
15 25.05 З 2 18 км 3/3 480 м
[Cu med, cong]
+32.5 +25.3 66 +47 +55 опасность
перегрева
1010.2 1010.0
18 25.05 З 1 18 км 3/3 450 м
[Cu med, cong]
+32.1 +24.7 65 +45 +45 опасность
перегрева
1010.2 1010.0 +32.8
21 25.05 ЮЗ 2 15 км гроза без осадков 8/8 360 м
[Cb cap]
+27.5 +22.2 73 +36 +36 очень
душно
1013.0 1013.0
00 26.05 ЮЗ 2 10 км гроза без осадков {дождь} 9/6 330 м
[Cb cap Ac As]
+22.5 +21.6 95 +30 +30 очень
душно
1016.4 1016.0 53

 

Местоположение метеостанции Bole (Гана): широта 9.03 долгота -2.48 высота над уровнем моря 301 м.

В архиве по умолчанию представлена погода в Bole за последнюю неделю. Архивные данные за месяц целиком и за предыдущие месяцы, начиная с января 2011 года, Вы можете получить, выбрав интересующий диапазон дат из раскрывающегося списка и нажав кнопку "Ввод!".

Внимание! Время в таблицах - всемирное. Для получения местного времени необходимо прибавить поправку, которая в Bole равна 1 ч.

Смотрите также архив погоды в соседних городах и на ближайших метеорологических станциях:

Погода в Wa (Гана) (113 км)
Погода в Bondoukou (Кот-д'Ивуар) (114 км)
Погода в Wenchi (Гана) (148 км)
Погода в Gaoua (Буркина-Фасо) (164 км)
Погода в Tamale (Гана) (186 км)
Погода в Sunyani (Гана) (190 км)
Погода в Navrongo (Гана) (257 км)
Погода в Yendi (Гана) (274 км)
Погода в Kumasi (Гана) (275 км)
Погода в Po (Буркина-Фасо) (277 км)

Пояснения к столбцам:

Ветер - указаны скорость ветра в м/с - средняя за 10 мин, порывы в срок и между сроками (в фигурных скобках) и направление, откуда дует ветер: С - северный, СВ - северо-восточный, В - восточный, ЮВ - юго-восточный, Ю - южный, ЮЗ - юго-западный, З - западный, СЗ - северо-западный.
Видимость - горизонтальная дальность видимости в метрах или километрах. При видимости от 1 до 10 км при отсутствии осадков обычно наблюдается дымка, при ухудшении видимости до 1 км и менее - туман. В сухую погоду видимость может ухудшаться дымом, пылью или мглою.
Явления - указаны атмосферные явления, наблюдавшиеся в срок или в последний час перед сроком; фигурными скобками обозначены явления, наблюдавшиеся между сроками (за 1-3 часа до срока); квадратными скобками обозначены град или гололедные отложения с указанием их диаметра в мм.
Облачность - указаны через наклонную черту общая и нижняя облачность в баллах и высота нижней границы облаков в метрах; квадратными скобками обозначены формы облаков: Ci - перистые, Cs - перисто-слоистые, Cc - перисто-кучевые, Ac - высококучевые, As - высокослоистые, Sc - слоисто-кучевые, Ns - слоисто-дождевые, Cu - кучевые, Cb - кучево-дождевые. Подробнее классификацию облаков см. в Атласе облаков (PDF).
T - Температура воздуха - температура, измеренная на высоте 2 м над землей.
Td - Температура точки росы - температура, при понижении до которой содержащийся в воздухе водяной пар достигнет насыщения.
f - Относительная влажность воздуха - влажноcть воздуха, измеренная на высоте 2 м над землей.
Te - Эффективная температура - температура, которую ощущает одетый по сезону человек в тени. Характеристика душности погоды. При расчете учитывается влияние влажности воздуха и скорости ветра на теплоощущения человека.
Tes - Эффективная температура на солнце - температура, которую ощущает человек, с поправкой на солнечный нагрев. Характеристика знойности погоды. Зависит от высоты солнца над горизонтом, облачности и скорости ветра. Ночью, в пасмурную погоду, а также при ветре 12 м/с и более поправка равна нулю.
P - Атмосферное давление - приведенное к уровню моря атмосферное давление.
Po - Атмосферное давление - измеренное на уровне метеостанции атмосферное давление.
Tmin - Минимальная температура - минимум температуры воздуха на высоте 2 м над землей.
Tmax - Максимальная температура - максимум температуры воздуха на высоте 2 м над землей.
R - Количество осадков - Количество выпавших осадков за период времени, мм. При наведении курсора мыши на число - период времени, за который выпало указанное количество осадков.
R24 - Количество осадков - Количество выпавших осадков за 24 часа, мм.
S - Снежный покров - Высота снежного покрова, см. При наведении курсора мыши на число - состояние снежного покрова и степень покрытия местности в баллах.